weather.gov     
National Weather Service

Regional Weather Roundup
NWS Homepage
This page is being discontinued on March 12, 2014.
The same data is available at this site. Please update your bookmarks.
Thank you, and we apologize for the inconvenience.
Please send an email to SR-SRH.Webmaster@noaa.gov with any concerns.


Current Version
Previous Version:    01  02  03  04  05  06  07  08  09  10  11  12  13  14  15  16  17  18  19  20  21  22  23  24  25  26  27  28  29  30  
   31  32  33  34  35  36  37  38  39  40  41  42  43  44  45  46  47  48  49  50  51  52  53  54  55  56  57  58  59  60  
[Printable]
461
ASCA44 KEWX 231920
RWRMX

LATIN AMERICA AND CARIBBEAN REGIONAL WEATHER ROUNDUP
NATIONAL WEATHER SERVICE AUSTIN/SAN ANTONIO TX
200 PM CDT WED APR 23 2014

NOTE: "FAIR" INDICATED FEW OR NO CLOUDS BELOW 12,000 FEET WITH NO
SIGNIFICANT WEATHER AND/OR OBSTRUCTIONS TO VISIBILITY.

BAJA CALIFORNIA

CITY           SKY/WX    TMP DP  RH WIND       PRES   REMARKS
LORETO         PTSUNNY   82  66  57 E9        29.85S
LA PAZ         MOSUNNY   88  36  15 S5        29.89
MEXICALI       MOSUNNY   79  30  17 NW12      29.87
S.J. DEL CABO  MOSUNNY   90  41  18 SE14      29.87F
TIJUANA        MOSUNNY   68  46  45 W12       29.99S

NORTHWESTERN MEXICO

CITY           SKY/WX    TMP DP  RH WIND       PRES   REMARKS
CULIACAN       PTSUNNY   93  45  18 W8        29.87
DURANGO        MOSUNNY   79  25  13 CALM      30.11
GUAYMAS        MOSUNNY   81  54  39 SW14      29.82
HERMOSILLO     MOSUNNY   90  36  14 S13       29.87
CD. JUAREZ     MOSUNNY   81  30  16 W14G25    29.85
LOS MOCHIS     PTSUNNY   84  54  34 SW14      29.87F
OBREGON        PTSUNNY   86  46  25 CALM      29.83

NORTHEASTERN MEXICO

CITY           SKY/WX    TMP DP  RH WIND       PRES   REMARKS
CHIHUAHUA      CLOUDY    82  28  14 SW23      29.95
MATAMOROS      SUNNY     84  68  58 SE16      29.90
MONCLOVA         N/A    N/A N/A N/A MISG        N/A
MONTERREY      SUNNY     82  61  47 S9        29.85F
NUEVO LAREDO   MOSUNNY   88  70  55 S8        29.82  HX  92
PIEDRAS NEGRAS SUNNY     88  66  48 SE9       29.81F HX  90
REYNOSA        MOSUNNY   82  63  51 E16       29.84
SALTILLO       PTSUNNY   81  63  54 N9        30.02F
TORREON        MOSUNNY   90  36  14 N5        29.93F
CD. VICTORIA   SUNNY     84  64  51 SE9G21    29.84

WESTERN MEXICO

CITY           SKY/WX    TMP DP  RH WIND       PRES   REMARKS
AGUASCALIENTES SUNNY     81  25  12 W6        30.18
COLIMA         MOSUNNY   82  64  54 SW17      29.95F
DEL BAJIO      MOSUNNY   84  36  17 W2        30.18F
GUADALAJARA    SUNNY     84  28  13 W13       30.11
MANZANILLO     MOSUNNY   82  72  69 SE9       29.84F
MAZATLAN       SUNNY     82  63  51 SW10      29.85F
P. VALLARTA    SUNNY     82  64  54 S13       29.87F
URUAPAN        SUNNY     77  52  41 S12       30.14F
ZACATECAS      MOSUNNY   81  27  13 SW7G21    30.21F

CENTRAL MEXICO

CITY           SKY/WX    TMP DP  RH WIND       PRES   REMARKS
CUERNAVACA     MOSUNNY   86  43  22 SE7       30.03F
MEXICO CITY    PTSUNNY   75  43  31 NE6       30.24F
MORELIA        MOSUNNY   82  41  23 N7        30.16
POZA RICA      MOSUNNY   88  73  62 E14       29.93F HX  96
PUEBLA         MOSUNNY   75  45  33 S10       30.26F
QUERETARO      MOSUNNY   82  41  23 SW6       30.22F
S. LUIS POTOSI MOSUNNY   82  45  26 SE5       30.13F
TAMPICO        MOSUNNY   82  68  61 SE15      29.88F
TOLUCA         PTSUNNY   73  27  17 N10       30.32F

SOUTHERN MEXICO

CITY           SKY/WX    TMP DP  RH WIND       PRES   REMARKS
ACAPULCO       MOSUNNY   88  75  66 SW8       29.82F HX  97
B. DE HUATULCO MOSUNNY   90  75  62 S9        29.87  HX 100
OAXACA         PTSUNNY   82  46  28 E6        30.12F
P. ESCONDIDO   SUNNY     90  73  58 SW9       29.99S HX  98
VERACRUZ       MOSUNNY   84  68  58 E12       29.87F
ZIHUATANEJO    SUNNY     86  73  66 S5        29.86F HX  93

YUCATAN PENINSULA

CITY           SKY/WX    TMP DP  RH WIND       PRES   REMARKS
CAMPECHE       MOSUNNY   86  73  66 NW18      29.84F HX  93
CANCUN         MOSUNNY   82  64  54 E10       29.94F
CHETUMAL       PTSUNNY   86  75  70 E12       29.90F HX  95
CD. DEL CARMEN PTSUNNY   82  72  69 N9        29.86
COZUMEL        PTSUNNY   81  66  61 E12       29.94F
MERIDA         MOSUNNY   91  59  33 E8        29.88F HX  90
MINATITLAN       N/A    N/A N/A N/A MISG        N/A
TAPACHULA      PTSUNNY   90  79  70 S10       29.84F HX 105
TUX. GUTIERREZ MOSUNNY   91  63  38 NE12      29.86F HX  92
VILLAHERMOSA   CLOUDY    88  72  58 CALM      29.89F HX  94

CENTRAL AMERICA

CITY           SKY/WX    TMP DP  RH WIND       PRES   REMARKS
BELIZE CITY    MOSUNNY   88  73  62 SE6       29.90F HX  96
MANAGUA        PTCLDY    93  68  43 E9        29.80F HX  97

CARIBBEAN

CITY           SKY/WX    TMP DP  RH WIND       PRES   REMARKS
ARUBA          MOSUNNY   90  77  66 E23       29.77F HX 102
KINGSTON       MOSUNNY  N/A N/A N/A S13       29.89F
NASSAU         MOSUNNY   84  63  48 W6        29.92F
SAN JUAN       MOSUNNY   90  68  48 VRB6      29.90F HX  93
SANTO DOMINGO  MOSUNNY   88  73  62 SW8       29.89F HX  96
ST. CROIX      MOSUNNY   84  73  70 SE9       29.95F HX  91
ST. KITTS      MOSUNNY   86  72  62 S6        29.94S HX  92
ST. MAARTEN    MOSUNNY   84  73  70 SE6       29.94S HX  91
ST. THOMAS     CLOUDY    81  75  83 VRB6      29.94F

$$





U.S. Dept. of Commerce
NOAA National Weather Service
1325 East West Highway
Silver Spring, MD 20910
E-mail: w-nws.webmaster@noaa.gov
Page last modified: May 16, 2007
NATIONAL WEATHER SERVICE: for Safety, for Work, for Fun - FOR LIFE